EW4536 Weather Reports


Display with metric or nautical units.
time (UTC)temp
F
wind
direction
speed
MPH
gust
MPH
rain 1hr
in
rain 24hr
in
rain mn
in
humidity
%
barometer
mb
20260507063020 67 150 0.0 2.0 0.00 0.00 0.00 86 1013.7
20260507061602 67 150 0.0 2.0 0.00 0.00 0.00 86 1013.8
20260507060022 67 150 1.0 2.0 0.00 0.00 0.00 85 1014.0
20260507054615 68 150 0.0 0.0 0.00 0.00 0.00 84 1014.1
20260507053025 68 150 0.0 0.0 0.00 0.00 0.00 83 1014.2
20260507051602 69 150 0.0 2.0 0.00 0.00 0.00 83 1014.4
20260507050042 69 150 0.0 2.0 0.00 0.00 0.00 81 1014.6
20260507044610 71 150 0.0 2.0 0.00 0.00 0.00 79 1014.6
20260507043040 71 150 0.0 2.0 0.00 0.00 0.00 80 1014.5
20260507041511 71 150 0.0 3.0 0.00 0.00 0.00 79 1014.5
20260507040042 71 151 0.0 3.0 0.00 0.00 0.00 79 1014.8
20260507034508 71 153 1.0 3.0 0.00 0.00 0.00 78 1014.8
20260507033053 71 153 0.0 1.0 0.00 0.00 0.00 77 1014.7
20260507031516 71 153 0.0 2.0 0.00 0.00 0.00 78 1014.5
20260507030051 72 170 2.0 4.0 0.00 0.00 0.00 77 1014.6
20260507024521 73 255 0.0 2.0 0.00 0.00 0.00 74 1014.4
20260507023056 74 262 0.0 2.0 0.00 0.00 0.00 72 1014.2
20260507021534 75 263 1.0 3.0 0.00 0.00 0.00 70 1014.2
20260507020004 75 271 1.0 2.0 0.00 0.00 0.00 69 1014.5
20260507014552 76 276 1.0 2.0 0.00 0.00 0.00 67 1014.3
20260507013009 77 267 1.0 4.0 0.00 0.00 0.00 66 1014.1
20260507011543 78 279 1.0 4.0 0.00 0.00 0.00 64 1014.3
20260507010018 79 288 2.0 5.0 0.00 0.00 0.00 62 1014.5
20260507004548 80 285 2.0 6.0 0.00 0.00 0.00 60 1014.4
20260507003019 81 287 4.0 8.0 0.00 0.00 0.00 58 1014.4
20260507001607 82 285 6.0 10.0 0.00 0.00 0.00 57 1014.1
20260507000032 83 317 4.0 6.0 0.00 0.00 0.00 56 1014.0
20260506234627 84 315 3.0 9.0 0.00 0.00 0.00 55 1013.5
20260506233024 85 320 5.0 11.0 0.00 0.00 0.00 53 1013.6
20260506231559 87 283 7.0 14.0 0.00 0.00 0.00 51 1013.5
20260506230028 88 263 5.0 12.0 0.00 0.00 0.00 48 1013.2
20260506224555 89 252 5.0 11.0 0.00 0.00 0.00 46 1013.3
20260506223011 90 284 2.0 9.0 0.00 0.00 0.00 46 1013.3
20260506221559 90 288 5.0 14.0 0.00 0.00 0.00 45 1013.4
20260506220017 90 279 2.0 8.0 0.00 0.00 0.00 45 1013.4
20260506214600 90 267 7.0 12.0 0.00 0.00 0.00 44 1013.2
20260506213019 91 275 5.0 12.0 0.00 0.00 0.00 45 1013.3
20260506211555 93 320 5.0 10.0 0.00 0.00 0.00 42 1013.3
20260506210030 92 286 7.0 13.0 0.00 0.00 0.00 43 1013.4
20260506204548 92 196 3.0 15.0 0.00 0.00 0.00 43 1013.6
20260506160101 84 208 3.0 11.0 0.00 0.00 0.00 58 1016.6
20260506154521 83 291 3.0 11.0 0.00 0.00 0.00 58 1016.8
20260506153105 83 247 5.0 13.0 0.00 0.00 0.00 59 1016.7
20260506151526 81 269 2.0 10.0 0.00 0.00 0.00 60 1016.7
20260506144526 80 111 5.0 12.0 0.00 0.00 0.00 61 1016.7
20260506143104 79 254 3.0 10.0 0.00 0.00 0.00 62 1016.4
20260506141533 78 159 3.0 9.0 0.00 0.00 0.00 66 1016.4
20260506140101 77 281 2.0 7.0 0.00 0.00 0.00 69 1016.4
20260506134516 75 118 3.0 11.0 0.00 0.00 0.00 71 1016.5
20260506133102 74 146 2.0 10.0 0.00 0.00 0.00 72 1016.4
20260506131509 73 217 2.0 6.0 0.00 0.00 0.00 72 1016.5
20260506130041 72 165 2.0 9.0 0.00 0.00 0.00 74 1016.5
20260506124615 70 156 1.0 4.0 0.00 0.00 0.00 76 1016.4
20260506123033 67 167 0.0 3.0 0.00 0.00 0.00 80 1016.3
20260506121611 64 88 0.0 2.0 0.00 0.00 0.00 82 1016.0
20260506120044 62 88 0.0 2.0 0.00 0.00 0.00 86 1015.8
20260506114509 59 88 0.0 0.0 0.00 0.00 0.00 90 1015.7
20260506113043 58 88 0.0 1.0 0.00 0.00 0.00 90 1015.6
20260506111508 56 137 0.0 0.0 0.00 0.00 0.00 91 1015.7
20260506110045 56 137 0.0 0.0 0.00 0.00 0.00 90 1015.6
20260506104533 56 137 0.0 0.0 0.00 0.00 0.00 90 1015.4
20260506103105 56 137 0.0 0.0 0.00 0.00 0.00 90 1015.3
20260506101524 56 137 0.0 0.0 0.00 0.00 0.00 89 1015.1
20260506100105 56 137 0.0 0.0 0.00 0.00 0.00 89 1015.3
20260506094534 57 137 0.0 0.0 0.00 0.00 0.00 88 1015.3
20260506093104 57 137 0.0 0.0 0.00 0.00 0.00 88 1015.3
20260506091522 56 137 0.0 0.0 0.00 0.00 0.00 88 1015.3
20260506090054 58 137 0.0 0.0 0.00 0.00 0.00 88 1015.2
20260506084517 58 137 0.0 0.0 0.00 0.00 0.00 88 1014.9
20260506083058 58 137 0.0 0.0 0.00 0.00 0.00 88 1015.1
20260506081521 59 137 0.0 0.0 0.00 0.00 0.00 87 1015.1
20260506080113 59 137 0.0 0.0 0.00 0.00 0.00 87 1015.2
20260506073103 59 137 0.0 0.0 0.00 0.00 0.00 86 1015.0
20260506071515 59 137 0.0 0.0 0.00 0.00 0.00 85 1014.7